Wind_Speed
64 63 61 58 56 53 51 48 45 42 41 40 39 40 40 41 41 42 44 45 47 50 53 58 62 66 68 67 66 66 67 69 70 71 72 73 73 74 74 75 75 76 77 77 78 78 78 78 78 78 77 77 76 76 75 74 74 74 74 75 75 76 78 79 81 82 83 83 84 84 85 85 85 86 86 86 86 86 87 87 87 87 87 87 86 86
63 61 59 56 54 51 49 46 43 40 38 37 36 37 38 38 39 40 42 45 47 51 55 60 64 67 68 65 63 63 64 67 69 70 71 72 73 74 75 75 76 77 77 78 78 78 78 78 78 78 78 78 78 77 77 76 76 76 76 76 76 76 77 78 79 81 82 83 84 85 85 86 86 87 87 87 87 87 87 87 87 87 87 86 86 86
61 59 57 54 52 50 47 44 41 38 35 34 33 34 36 37 39 41 44 47 50 54 58 62 65 67 68 65 62 61 62 65 67 69 70 71 73 74 75 76 77 78 78 79 79 79 79 79 79 80 80 80 79 79 78 78 78 79 79 79 79 79 80 80 80 81 82 83 84 85 85 86 86 86 87 87 87 87 87 87 86 86 86 86 86 86
59 57 55 53 51 48 45 42 38 35 32 31 31 33 35 37 40 43 46 50 53 57 60 62 64 66 66 64 61 60 61 63 65 67 69 70 72 73 75 77 78 79 80 80 80 80 80 81 81 82 82 82 81 81 81 81 81 81 81 82 82 83 83 83 83 84 84 85 86 86 87 87 87 87 87 86 86 86 86 86 86 86 86 86 86 86
57 56 54 52 49 46 44 40 36 33 30 28 28 30 33 36 40 44 47 51 54 56 59 60 61 62 62 61 60 60 60 61 63 65 67 69 71 73 75 77 79 80 81 81 82 82 82 83 83 83 83 83 83 83 83 83 83 83 84 84 85 85 86 86 86 87 87 87 88 89 89 90 90 90 90 89 89 89 88 88 88 88 88 88 88 88
56 54 53 51 48 45 42 38 34 30 27 26 26 28 31 34 37 42 45 49 51 53 55 56 57 57 58 58 58 58 58 58 59 61 64 66 69 71 74 76 78 79 81 82 83 83 84 84 84 84 85 85 85 85 85 85 86 86 86 86 87 87 88 88 89 89 90 90 91 91 92 92 93 93 94 94 94 94 94 94 94 93 93 93 93 93
54 53 52 50 48 44 41 37 33 29 26 24 24 25 27 29 33 37 40 44 46 48 50 51 52 53 54 54 55 55 55 56 56 58 60 63 66 69 71 73 75 77 79 81 82 83 84 84 85 85 85 86 86 86 87 87 87 88 88 89 89 89 89 90 90 91 91 92 93 93 94 94 95 96 96 97 98 98 99 99 99 99 99 99 99 99
53 52 51 49 47 44 41 36 32 28 25 23 22 22 23 25 27 30 33 36 39 41 43 44 46 47 48 49 50 51 51 52 53 54 57 59 62 65 67 69 72 74 76 78 80 81 82 83 84 85 85 86 86 87 87 88 88 89 89 90 90 91 91 92 92 92 93 93 94 95 95 96 97 98 98 99 100 100 101 101 102 102 103 103 104 104
52 51 50 49 47 44 41 37 33 29 25 23 22 21 22 22 23 24 26 28 31 33 34 36 38 39 41 42 43 44 45 46 48 50 52 55 57 60 63 65 68 71 73 75 77 79 80 81 82 83 84 85 86 87 87 88 89 89 90 90 91 91 92 93 93 94 94 95 96 96 97 98 99 99 100 101 101 102 103 103 104 104 105 105 106 107
52 51 49 48 46 44 42 38 35 31 27 25 23 22 22 22 22 22 23 24 25 26 28 29 31 33 34 35 36 38 39 40 42 44 47 49 53 56 59 61 64 67 69 71 73 75 76 77 79 80 81 83 84 85 86 87 88 88 89 90 91 91 92 93 94 94 95 96 97 98 99 100 100 101 102 103 103 104 104 105 106 106 107 107 108 108
52 51 49 48 46 44 42 39 36 33 30 27 25 24 23 23 23 23 23 24 24 25 25 26 27 29 30 32 33 34 35 36 38 40 42 45 48 51 54 57 60 62 64 65 67 69 71 72 74 75 77 78 80 81 82 83 85 86 87 88 89 90 91 92 93 94 95 96 98 99 100 100 101 102 103 103 104 105 106 106 107 107 108 108 108 109
51 50 50 48 46 44 42 40 37 35 32 29 27 26 25 24 23 24 24 25 25 26 26 27 28 28 29 30 31 32 33 35 36 38 40 42 45 48 50 53 55 56 58 60 61 63 65 66 68 70 71 73 74 76 77 79 80 82 84 85 87 88 89 91 92 93 94 96 97 98 99 99 100 101 102 102 103 104 104 105 105 105 106 106 106 106
49 49 49 48 47 45 43 41 39 36 34 32 30 28 26 25 25 24 25 25 25 26 27 28 29 29 30 31 32 32 33 35 36 37 39 41 43 45 47 49 51 52 54 55 57 58 60 61 63 65 66 68 69 71 72 74 76 78 80 81 83 85 86 88 89 91 92 93 94 95 96 96 97 97 98 98 99 99 100 100 100 101 101 101 101 101
49 48 48 47 46 45 44 42 40 38 36 34 32 31 29 28 27 26 26 26 26 26 26 27 28 29 29 30 31 32 33 34 35 37 38 40 41 43 44 46 48 49 50 52 53 55 56 58 59 61 62 64 65 67 69 70 72 74 75 77 79 80 82 83 84 85 86 87 88 89 90 90 91 91 92 92 93 93 93 94 94 94 94 94 95 95
48 48 47 47 46 45 44 43 41 40 38 37 35 34 32 31 30 29 29 28 28 28 28 28 28 29 29 29 30 31 32 33 35 36 37 38 39 40 41 43 44 46 47 49 50 52 53 54 56 57 59 60 61 63 64 66 67 69 70 71 73 74 75 76 77 78 79 80 81 82 83 83 84 84 85 85 86 86 87 87 88 88 89 89 89 90
48 48 47 47 46 45 44 43 42 41 40 39 38 37 36 35 34 33 32 32 31 31 31 31 31 32 31 31 31 32 33 34 36 37 38 39 39 38 39 41 42 44 45 46 48 49 50 51 52 54 55 56 57 59 60 61 63 64 65 66 68 69 70 71 72 72 73 74 75 76 77 78 79 79 80 81 81 82 83 83 84 85 85 86 86 87
48 48 47 47 46 45 44 43 42 42 41 40 39 39 38 37 37 36 36 35 35 35 35 35 35 36 36 35 35 35 36 38 39 40 41 42 41 41 40 42 44 46 47 47 48 49 50 51 52 53 54 55 57 58 59 60 61 63 64 65 66 67 68 69 70 71 72 73 74 74 75 76 77 78 79 79 80 81 82 82 83 84 85 85 86 87
49 49 48 47 47 46 45 44 43 42 42 41 41 40 40 40 39 39 39 39 38 38 38 38 39 39 39 40 39 39 39 41 42 44 45 45 45 44 44 45 47 49 50 50 51 51 52 54 55 56 56 57 59 60 61 62 63 64 65 66 67 68 69 70 71 72 73 74 75 76 77 77 78 79 80 80 81 82 83 84 84 85 86 87 87 88
51 50 49 49 48 47 46 45 44 44 43 42 42 41 41 41 41 41 41 41 41 41 41 42 42 42 42 43 43 43 43 44 46 47 48 49 49 48 48 49 51 52 53 54 54 55 56 57 58 58 59 60 61 63 64 65 66 67 68 69 70 70 71 72 73 74 75 76 77 78 79 79 80 81 82 82 83 84 85 85 86 87 88 88 89 90
53 52 51 50 50 49 48 47 46 45 45 44 44 43 43 43 43 43 43 43 43 43 44 44 45 45 45 45 46 46 46 47 48 50 51 52 52 51 51 52 54 55 56 57 57 58 59 60 61 61 62 63 64 66 67 68 69 69 70 71 72 73 74 75 75 76 77 78 79 80 81 81 82 83 83 84 85 86 86 87 88 88 89 90 90 91
55 54 54 53 52 51 51 50 48 48 47 46 46 45 45 45 45 45 45 45 45 46 46 46 47 47 47 48 48 48 48 49 50 52 53 54 54 54 54 55 56 58 59 59 60 60 61 62 63 64 65 66 67 68 69 70 71 72 72 73 74 75 76 77 78 79 79 80 81 82 82 83 84 84 85 86 86 87 88 88 89 90 90 91 92 92
56 56 56 55 54 54 53 52 51 50 50 49 49 48 48 48 48 48 48 48 48 48 48 49 49 49 50 50 50 51 51 51 53 54 55 56 57 56 56 57 58 60 61 62 62 63 64 65 66 66 67 68 69 70 71 72 73 74 75 75 76 77 78 79 80 80 81 82 83 83 84 84 85 86 86 87 88 88 89 90 90 91 91 92 93 93
57 57 57 56 56 55 55 54 54 53 52 52 51 51 51 51 51 50 50 50 50 51 51 51 52 52 52 52 53 53 53 54 55 56 57 59 59 59 59 59 61 62 64 64 64 65 66 67 67 68 69 70 71 72 73 74 75 76 77 77 78 79 80 81 81 82 83 84 84 85 85 86 86 87 87 88 89 89 90 91 91 92 92 93 94 94
58 58 58 58 57 57 57 56 56 55 55 54 54 53 53 53 53 53 53 53 53 53 54 54 54 55 55 55 55 55 56 56 57 59 60 61 62 62 61 62 63 65 66 66 66 67 68 69 70 70 71 72 73 74 75 76 77 77 78 79 80 81 81 82 83 84 84 85 85 86 87 87 88 88 89 89 90 90 91 92 92 93 93 94 94 95
60 60 59 59 59 59 58 58 58 57 57 57 56 56 56 56 55 55 55 55 55 55 56 56 57 57 57 57 57 58 58 58 59 60 62 63 64 64 64 64 65 67 68 68 68 69 70 71 72 72 73 74 75 76 77 78 79 79 80 81 82 82 83 84 84 85 86 86 87 87 88 88 89 89 90 90 91 91 92 93 93 94 94 95 95 96
61 61 61 60 60 60 60 60 60 59 59 59 59 59 59 58 58 58 58 58 58 58 58 59 59 59 59 59 60 60 60 60 61 62 64 65 66 66 66 66 67 69 70 71 71 71 72 73 74 74 75 76 77 78 79 80 80 81 82 83 83 84 85 85 86 86 87 88 88 89 89 89 90 90 91 91 92 92 93 93 94 94 95 95 96 96
62 62 62 62 62 62 62 62 62 61 61 61 61 61 61 61 61 61 61 60 60 60 61 61 62 62 62 62 62 62 62 62 63 64 65 66 68 68 68 68 69 71 72 73 73 73 74 75 76 77 77 79 79 80 81 82 82 83 83 84 85 85 86 87 87 88 88 89 89 90 90 90 91 91 91 92 92 93 93 94 94 94 95 95 95 95
63 63 63 63 63 63 63 63 63 63 63 63 63 63 63 63 63 63 63 62 62 62 63 63 63 64 64 64 64 64 64 64 65 66 67 68 70 70 71 71 71 72 74 75 75 75 76 77 78 79 79 80 81 82 82 83 84 84 85 86 86 87 87 88 88 89 89 89 90 90 91 91 91 91 92 92 92 93 93 93 93 94 94 94 94 94
64 64 64 64 64 64 64 64 64 64 64 64 64 64 64 64 64 64 64 64 64 64 64 64 65 65 65 66 66 66 66 66 66 67 68 70 72 73 73 73 73 74 75 77 77 78 78 79 79 80 81 82 82 83 84 84 85 85 86 86 87 87 88 88 89 89 90 90 90 90 90 91 91 91 91 91 91 92 92 92 92 92 92 92 92 92
64 64 65 65 65 65 65 65 65 65 65 65 64 64 64 64 64 65 65 65 65 65 66 66 66 66 66 67 67 68 68 68 68 69 70 72 74 75 75 75 76 76 77 78 79 80 81 80 80 81 82 83 83 84 84 85 85 86 86 87 87 88 88 88 89 89 89 90 90 90 90 89 89 89 89 89 89 89 89 89 89 89 89 89 89 89
64 65 65 65 65 65 65 65 65 65 65 65 65 65 65 65 65 65 65 65 66 66 67 67 67 67 68 68 69 70 70 70 70 70 72 74 76 77 77 78 78 78 78 79 80 82 83 82 82 82 82 83 84 84 85 85 85 86 86 87 87 87 88 88 88 88 88 88 88 88 88 87 87 87 87 87 86 86 86 86 86 86 86 86 87 87
64 64 65 65 65 65 65 65 65 65 65 65 65 65 65 65 66 66 66 66 67 67 68 68 69 69 69 70 71 72 72 72 72 72 74 76 77 78 79 79 80 80 80 80 81 82 83 84 83 83 83 83 84 84 84 85 85 85 86 86 86 87 87 87 87 87 87 86 86 86 85 85 84 84 84 84 84 83 83 83 83 83 83 84 84 84
64 64 64 64 64 64 64 65 65 65 65 66 66 66 66 67 67 67 68 68 68 69 70 70 71 71 72 72 73 73 74 74 74 75 75 77 79 80 80 81 81 82 82 81 82 82 83 84 84 84 83 83 84 84 84 84 84 85 85 85 85 85 85 85 85 84 84 84 84 83 83 82 82 81 81 81 81 81 81 81 81 81 81 81 81 81
63 63 64 64 64 64 65 65 65 66 66 67 67 68 68 69 69 69 70 70 71 71 72 72 73 74 74 75 75 76 76 76 76 76 77 78 80 81 81 82 82 82 82 82 82 82 83 83 84 84 84 83 83 83 83 83 84 84 84 84 84 83 83 82 82 82 81 81 81 80 80 79 79 79 78 78 78 78 78 78 78 78 78 78 78 78
63 63 64 64 65 65 66 66 67 67 68 68 69 69 70 71 71 72 72 73 73 73 74 74 75 75 76 77 78 78 78 78 78 78 78 79 80 81 82 82 82 82 82 82 82 82 83 83 83 83 83 83 83 83 82 82 82 82 82 82 82 81 81 80 79 79 79 78 78 78 77 77 76 76 76 75 75 75 75 75 75 75 74 74 74 74
64 64 65 65 66 67 67 68 69 69 70 70 71 71 72 73 73 74 74 75 75 76 76 76 77 77 78 78 79 80 80 80 79 79 79 80 80 81 82 82 81 81 81 82 82 82 82 82 82 82 83 83 83 82 81 81 81 80 80 80 79 79 78 77 77 77 76 76 76 75 75 74 73 73 72 72 72 71 71 71 71 70 70 70 70 69
65 66 67 67 68 68 69 70 71 71 72 73 73 74 74 75 75 76 76 77 77 77 78 78 78 79 79 79 79 80 80 80 80 80 80 80 80 80 81 81 80 80 80 80 81 81 81 81 81 81 81 81 82 81 81 80 79 79 78 78 77 76 76 75 74 74 74 73 73 72 71 71 70 69 69 68 68 67 67 67 66 66 66 66 66 66
67 68 69 69 70 70 71 72 73 73 74 74 75 76 76 77 77 77 78 78 79 79 79 79 80 80 80 80 80 80 80 80 80 80 79 79 79 79 79 79 79 79 79 79 79 79 80 80 80 80 80 80 80 80 80 79 79 78 77 76 75 74 73 72 71 71 70 70 69 69 68 67 66 65 65 64 64 63 63 63 63 62 62 62 62 62
69 70 70 71 71 72 73 74 74 75 76 76 77 77 78 78 79 79 79 79 80 80 80 80 81 81 81 81 80 80 80 80 79 79 79 78 78 78 78 78 78 78 78 78 78 78 78 78 78 79 79 79 79 79 78 78 78 77 76 74 73 72 70 69 68 68 67 66 65 65 64 63 62 61 61 60 60 60 60 60 60 59 59 59 59 59
70 71 72 73 73 74 75 75 76 77 77 78 78 79 79 79 80 80 80 80 80 80 81 81 81 81 81 80 80 80 79 79 78 78 78 77 77 77 77 77 77 77 77 77 76 76 76 77 77 77 77 77 78 78 78 77 76 75 74 73 71 69 68 66 65 64 63 62 61 60 60 59 58 58 58 57 57 57 57 57 57 57 56 56 56 57
72 73 73 74 75 75 76 77 77 78 78 79 79 80 80 80 80 81 81 81 81 81 81 81 81 81 80 80 79 79 78 78 77 77 77 76 76 76 76 76 76 76 76 75 75 75 75 75 75 76 76 76 76 77 77 76 75 73 72 71 69 67 66 64 62 61 59 58 57 57 56 55 55 55 55 55 55 55 55 55 54 54 54 54 54 54
73 74 75 75 76 76 77 78 78 79 79 79 80 80 80 80 80 80 81 81 81 81 80 80 80 80 80 79 78 77 77 77 76 76 76 76 75 75 75 75 74 74 74 74 74 74 74 74 74 75 75 75 75 75 75 74 72 71 70 68 67 66 64 63 60 59 57 56 54 54 53 52 52 52 52 52 53 53 52 52 52 52 52 52 52 52
74 75 76 76 77 77 78 78 79 79 79 79 80 80 80 80 80 80 80 80 80 80 80 80 79 79 79 78 78 77 76 76 75 75 75 75 74 74 74 73 73 73 73 73 73 73 73 73 73 73 73 73 73 73 72 71 70 68 67 66 65 64 64 61 59 57 56 54 53 51 51 50 50 50 50 51 51 50 50 50 50 50 50 50 50 51
75 76 76 77 77 78 78 79 79 79 79 79 79 79 80 80 79 79 79 79 79 79 79 78 78 78 78 77 77 76 76 75 74 74 73 73 73 73 72 72 72 72 72 72 72 72 72 72 72 71 71 70 70 70 69 68 67 66 65 64 63 63 62 60 59 57 55 53 52 50 49 49 49 49 49 49 49 49 49 49 49 49 49 49 49 49
76 76 77 77 78 78 78 78 79 78 78 78 78 79 79 79 79 79 79 79 78 78 78 77 77 77 77 76 76 75 75 74 73 72 72 72 72 71 71 71 71 71 71 71 71 71 71 71 71 70 69 68 67 67 66 65 65 64 63 62 61 60 60 58 57 56 54 53 51 50 49 48 48 48 48 48 48 48 48 48 47 47 47 47 47 47
76 77 77 77 78 78 78 78 78 78 78 78 78 78 78 78 78 78 78 78 77 77 77 77 76 76 76 76 75 75 74 73 72 71 71 70 70 70 70 70 70 70 70 70 70 70 70 69 69 68 67 65 64 64 63 63 62 62 61 60 60 59 58 57 55 54 53 52 51 50 49 48 48 47 47 47 47 47 47 47 46 46 46 45 45 45
77 77 77 77 77 77 77 77 77 77 77 77 77 77 77 77 77 77 77 77 76 76 76 76 76 76 76 75 75 74 73 73 72 71 70 70 70 69 69 69 69 69 69 68 68 68 68 67 66 65 64 63 63 62 61 60 60 60 59 59 58 57 56 55 54 53 52 51 50 50 49 48 48 47 47 47 47 47 47 46 45 45 44 44 43 43
77 77 77 77 77 77 76 76 76 76 76 76 76 76 76 76 76 76 76 76 76 76 76 76 75 75 75 74 73 73 73 72 72 71 70 70 69 69 69 68 68 67 67 66 66 66 66 65 64 63 62 61 61 60 59 59 58 58 57 57 56 55 54 53 52 51 51 50 50 49 49 48 48 48 47 47 47 47 46 46 45 44 43 42 42 42
76 76 76 76 76 76 76 75 75 75 75 75 75 75 75 75 75 75 75 75 75 75 75 75 75 74 74 73 73 72 72 72 71 71 70 70 69 68 68 67 66 66 65 64 64 64 63 63 62 61 60 59 59 58 58 57 57 56 55 54 54 53 52 51 51 50 49 49 49 49 49 48 48 48 47 47 47 47 46 45 44 43 42 42 41 41
76 76 76 76 75 75 75 75 74 74 74 74 74 75 75 75 74 74 74 75 74 74 74 74 73 73 73 73 72 72 72 72 71 71 70 69 68 67 66 65 64 64 63 62 62 61 61 61 60 59 58 57 57 57 56 56 55 54 53 52 52 51 50 50 49 49 49 48 48 48 48 48 48 47 47 47 47 46 45 44 43 42 41 41 41 41
75 75 75 75 75 74 74 74 74 74 74 74 74 74 74 74 74 74 74 73 73 73 73 72 72 72 72 72 72 72 72 72 71 70 69 68 67 66 65 64 63 62 61 60 60 60 59 59 58 58 56 55 55 54 54 53 53 52 51 50 50 49 49 48 48 48 48 48 48 48 48 47 47 47 46 46 45 45 44 44 43 42 41 40 40 40
Wind_Direction
320 319 317 315 313 311 307 303 298 293 286 279 271 263 256 250 246 244 244 244 245 245 245 245 245 246 246 246 246 246 246 246 247 248 249 249 250 251 253 254 256 257 259 260 261 261 262 263 263 263 264 264 264 264 264 263 263 263 264 264 266 267 269 271 273 274 275 275 275 276 276 276 276 276 276 275 275 275 275 275 276 276 276 276 277 277
323 322 320 318 316 314 311 306 301 295 288 280 270 261 253 246 241 238 238 239 240 241 242 243 245 247 248 248 248 247 246 246 246 247 247 248 249 250 251 252 253 254 255 256 257 259 260 261 261 262 262 263 263 263 263 263 262 261 261 261 261 262 263 265 267 270 272 274 275 276 277 277 277 278 278 278 278 278 278 278 278 278 278 279 279 279
326 325 324 322 320 318 314 310 305 299 291 281 270 260 252 244 237 234 234 235 236 238 240 243 246 249 251 251 250 248 246 245 245 246 246 247 248 249 249 250 251 251 253 254 255 256 257 258 259 260 261 261 261 261 262 262 261 261 261 260 260 259 259 260 262 264 266 269 271 273 274 275 276 277 277 278 278 278 278 279 279 279 279 279 279 279
329 328 328 326 325 322 319 315 310 303 294 283 272 262 253 244 237 234 234 235 237 239 241 244 248 251 253 253 252 250 248 246 246 246 247 247 248 248 249 249 250 250 251 252 253 254 255 256 258 258 259 260 260 260 260 260 260 260 260 260 260 260 260 259 259 260 261 263 265 267 269 270 271 273 274 274 275 275 276 276 276 277 277 277 277 277
332 332 332 331 329 327 324 320 315 308 299 287 275 265 257 249 242 238 238 239 240 242 245 248 251 253 255 256 256 255 253 252 250 250 249 249 248 248 249 249 249 250 251 252 252 253 254 256 257 258 259 259 260 260 260 260 260 260 260 260 261 261 261 261 261 260 260 260 261 262 263 265 266 267 268 269 270 271 271 272 272 273 273 273 274 274
334 335 335 335 334 333 330 327 322 316 306 294 281 271 263 257 251 246 244 245 246 248 250 252 255 256 258 259 260 261 261 259 257 255 253 252 250 250 250 250 250 251 251 252 253 254 255 256 257 258 259 259 260 260 260 260 260 260 260 260 261 261 262 262 262 262 262 261 261 261 261 262 263 263 264 265 266 267 267 268 268 269 269 269 270 270
336 337 338 339 339 338 337 335 331 325 317 305 292 282 274 268 263 258 255 254 254 255 257 258 260 261 262 263 264 265 265 265 263 261 258 256 254 253 253 252 252 253 253 253 254 255 255 256 257 258 259 259 260 261 261 261 261 261 261 261 261 261 261 262 262 262 263 263 263 263 262 262 262 263 263 263 264 264 265 265 266 266 267 267 267 268
337 338 340 342 343 343 343 342 340 336 329 319 308 298 290 284 278 273 269 267 266 266 266 267 267 267 267 268 268 269 269 269 267 265 262 260 258 257 257 256 256 256 256 256 256 256 257 257 258 259 259 260 260 261 261 261 262 262 262 262 262 262 262 262 262 262 262 263 263 263 264 264 264 264 264 264 264 264 265 265 265 266 266 266 267 267
338 339 341 343 345 347 348 349 348 345 340 333 325 317 310 304 298 292 286 282 279 277 276 276 275 275 274 273 273 273 273 271 269 267 264 262 261 260 260 260 259 259 258 258 258 258 258 259 259 260 260 260 261 261 261 262 262 262 263 263 263 263 263 263 263 263 263 263 263 264 264 264 264 265 265 265 266 266 266 266 266 267 267 267 268 268
337 339 341 343 345 347 350 352 352 351 348 343 337 331 325 320 315 309 303 297 292 289 286 284 282 281 279 277 276 275 274 272 270 267 265 264 262 262 262 261 261 261 260 260 260 260 260 260 261 261 261 261 262 262 262 262 263 263 264 264 264 264 265 265 265 265 265 265 265 264 265 265 265 266 266 266 267 267 267 268 268 268 269 269 269 269
337 338 340 342 344 346 348 351 353 354 352 350 345 341 335 330 325 319 314 309 304 300 295 291 289 286 284 282 279 277 275 273 270 268 265 264 263 262 262 262 262 262 262 262 262 262 262 262 262 263 263 263 263 263 263 264 264 264 264 265 265 265 265 266 266 266 266 266 266 266 266 266 266 267 267 267 268 268 268 269 269 269 269 270 270 270
336 337 339 340 342 343 345 347 350 351 352 351 350 347 343 337 331 326 321 317 313 309 305 302 298 295 292 289 286 283 280 277 274 271 268 266 264 263 263 263 263 263 263 263 263 263 263 263 264 264 264 264 264 264 264 264 265 265 265 265 265 265 265 266 266 266 266 266 267 267 267 268 268 268 268 269 269 269 269 269 270 270 270 270 270 271
334 335 336 338 339 341 342 344 345 346 347 347 347 346 344 339 335 330 327 323 319 315 312 308 305 302 299 296 293 290 286 283 279 276 273 270 267 266 265 265 265 265 265 264 264 264 264 264 264 264 264 265 265 265 265 265 265 265 265 265 265 265 266 266 266 267 267 267 268 268 269 269 269 269 270 270 270 270 270 270 270 270 270 271 271 271
331 332 334 335 336 338 339 340 341 341 341 341 340 339 338 336 333 330 327 324 321 318 314 310 307 304 302 299 296 293 290 287 284 280 277 274 271 270 269 268 267 267 266 266 266 266 265 265 265 265 265 265 266 266 266 266 266 266 266 266 266 267 267 267 267 268 268 269 269 269 269 270 270 270 270 270 270 270 270 270 270 270 270 270 270 270
328 329 330 332 333 334 335 336 336 336 336 336 335 333 332 330 328 326 324 321 318 316 313 309 307 304 302 299 297 295 292 289 286 284 281 278 276 274 273 272 271 271 270 269 269 268 268 268 268 267 267 267 267 268 268 268 268 268 268 268 268 268 268 269 269 269 269 269 269 269 270 270 270 270 270 270 270 270 270 270 270 270 270 270 270 270
325 326 327 328 329 330 331 332 332 332 332 331 330 329 328 326 324 322 319 317 315 312 310 307 305 303 301 298 296 294 292 290 288 286 284 282 281 279 278 277 276 275 274 273 273 272 272 271 271 270 270 270 270 270 270 270 270 270 269 269 269 270 270 270 270 270 270 270 270 270 270 270 270 270 270 270 270 270 270 270 270 270 270 270 270 270
321 322 323 324 325 325 326 327 327 328 327 327 326 325 323 322 320 319 317 315 313 311 309 307 304 302 301 299 296 295 293 291 290 288 287 285 284 283 282 281 280 279 278 277 276 276 275 275 274 274 273 273 273 272 272 272 272 271 271 271 271 271 271 271 271 271 271 271 271 271 271 271 271 271 271 271 271 270 270 270 270 270 270 270 270 270
318 319 319 320 320 321 322 322 322 323 322 322 321 320 319 318 317 315 314 312 311 309 307 306 304 302 300 299 297 296 294 293 291 289 288 287 286 286 285 284 283 281 281 280 279 279 278 277 277 276 276 275 275 274 274 274 273 273 273 273 272 272 272 272 272 272 272 272 272 272 272 272 272 272 272 271 271 271 271 271 271 271 271 271 271 271
315 316 316 317 317 317 317 318 318 318 318 317 317 316 315 314 313 311 310 309 308 306 305 304 302 301 300 298 297 296 295 293 292 290 289 289 288 288 287 286 284 283 282 281 281 280 279 279 278 278 277 276 276 275 275 275 274 274 274 274 274 273 273 273 273 273 273 273 272 272 272 272 272 272 272 272 272 272 272 272 272 272 272 272 272 272
314 314 314 314 314 314 314 314 314 314 314 313 313 312 311 310 309 308 307 306 305 304 303 301 300 299 298 297 297 296 295 293 292 290 289 289 289 288 287 286 285 283 283 282 281 281 280 279 279 278 277 277 276 276 275 275 275 275 274 274 274 274 274 273 273 273 273 273 273 273 273 273 273 273 273 273 273 273 273 273 273 273 273 273 273 273
312 312 313 313 313 313 312 312 312 311 311 310 310 309 308 307 306 306 305 304 303 302 301 299 298 297 297 296 295 294 293 292 290 289 289 288 288 287 286 285 284 283 282 281 281 280 279 279 278 278 277 277 276 276 275 275 275 275 274 274 274 274 274 274 274 273 273 273 273 273 273 273 273 273 274 274 274 274 274 274 274 274 274 274 274 273
311 311 311 311 311 311 311 310 310 310 309 308 308 307 306 306 305 304 303 302 301 300 299 298 297 296 295 294 294 293 292 291 289 288 288 287 286 286 285 284 283 282 281 281 280 280 279 278 278 278 277 277 276 276 275 275 275 275 275 275 274 274 274 274 274 274 274 274 274 274 274 274 274 274 274 274 275 275 275 275 275 274 274 274 274 274
309 310 310 310 310 310 309 309 309 308 308 307 307 306 305 305 304 303 303 302 301 300 299 298 297 295 295 294 293 292 291 290 289 288 288 287 286 286 285 284 283 282 281 281 280 280 279 279 278 278 277 277 277 276 276 276 276 276 275 275 275 275 275 275 275 275 275 275 275 275 275 275 276 276 276 276 276 276 276 276 276 276 275 275 275 275
308 308 309 309 308 308 308 308 308 307 307 306 306 305 305 304 303 303 302 301 300 299 298 297 296 295 294 294 293 292 291 290 290 289 288 287 287 286 286 285 284 283 282 282 281 281 280 280 279 279 278 278 278 277 277 277 277 277 277 277 276 276 276 276 276 277 277 277 277 277 277 277 277 277 277 277 277 277 277 277 277 276 276 276 276 276
307 307 308 308 307 307 307 307 307 307 306 306 305 305 304 304 303 302 302 301 300 299 298 297 296 295 295 294 293 292 291 291 290 289 288 288 287 286 286 285 284 284 283 283 282 282 281 281 280 280 279 279 279 278 278 278 278 278 278 278 278 278 278 278 278 278 278 278 278 278 278 278 278 278 278 278 278 278 278 278 277 277 277 277 277 277
307 307 307 307 307 307 307 307 306 306 306 306 305 305 304 304 303 302 302 301 300 299 299 298 297 296 295 294 293 292 292 291 290 289 289 288 288 287 286 286 285 284 284 284 283 282 282 282 281 281 280 280 280 280 280 280 279 279 279 279 279 279 279 279 279 279 279 279 279 279 279 279 279 279 279 279 278 278 278 278 278 278 278 278 278 278
306 306 306 306 306 306 306 306 306 306 306 305 305 305 304 304 303 302 302 301 301 300 299 298 297 296 296 295 294 293 293 292 291 290 290 289 288 288 287 286 286 285 285 284 284 283 283 283 282 282 282 281 281 281 281 281 281 281 281 280 280 280 280 280 280 280 280 280 280 279 279 279 279 279 279 279 279 279 279 279 279 278 278 278 278 278
306 306 306 306 306 306 306 306 306 305 305 305 305 304 304 303 303 302 302 301 301 300 299 298 297 297 296 296 295 294 293 293 292 291 291 290 289 288 288 287 286 286 285 285 285 284 284 283 283 283 283 282 282 282 282 282 282 282 281 281 281 281 281 281 280 280 280 280 280 280 279 279 279 279 279 279 279 279 279 279 279 279 279 279 278 278
305 305 305 305 305 305 305 305 305 305 305 304 304 304 303 303 302 302 301 301 300 300 299 298 298 297 296 296 295 295 294 293 292 292 291 290 289 288 288 287 287 286 286 285 285 285 284 284 284 283 283 283 283 283 283 282 282 282 282 282 281 281 281 281 280 280 280 280 280 280 279 279 279 279 279 279 279 279 279 279 279 279 279 279 279 279
304 304 304 304 304 304 304 304 304 304 304 304 304 303 303 302 302 301 301 300 300 299 299 298 298 297 297 296 295 295 294 293 292 292 291 290 289 289 288 288 287 286 286 286 286 285 285 285 284 284 284 284 284 283 283 283 283 282 282 282 282 281 281 281 280 280 280 280 280 280 280 279 279 279 279 279 279 279 279 279 279 279 279 279 279 279
304 304 304 304 304 304 304 304 304 304 304 304 303 303 302 302 301 301 300 300 299 299 298 298 297 297 296 296 295 295 294 293 292 292 291 290 289 289 289 288 287 287 287 286 286 286 286 286 285 285 285 284 284 284 283 283 283 283 282 282 282 281 281 281 281 280 280 280 280 280 280 280 280 280 279 279 279 279 279 279 279 279 279 279 279 279
304 304 304 304 304 304 304 304 304 304 304 303 303 303 302 302 301 301 300 300 299 299 298 298 297 297 296 296 295 294 294 293 292 292 291 290 289 289 289 288 288 288 288 287 287 287 287 287 287 286 286 285 285 284 284 284 283 283 283 282 282 282 281 281 281 281 281 281 281 280 280 280 280 280 280 280 280 279 279 279 279 279 279 279 279 279
304 304 304 304 304 304 304 304 304 304 304 303 303 303 302 302 301 301 300 300 299 299 298 298 297 297 296 295 295 294 293 293 292 292 291 290 290 290 289 289 289 289 289 289 288 288 288 288 288 287 287 286 285 285 285 284 284 283 283 283 282 282 282 282 282 281 281 281 281 281 281 281 281 280 280 280 280 280 280 280 279 279 279 279 279 278
305 305 305 305 305 305 305 304 304 304 303 303 303 303 302 302 301 301 300 300 300 299 299 298 297 297 296 296 295 294 293 293 292 292 292 291 291 290 290 290 290 290 290 290 290 290 289 289 288 288 288 287 286 286 285 285 284 284 284 283 283 283 282 282 282 282 282 282 282 281 281 281 281 281 281 280 280 280 280 280 279 279 279 279 278 278
305 305 305 305 305 305 305 304 304 304 304 303 303 302 302 302 301 301 301 300 300 299 299 298 297 297 296 296 295 295 294 294 293 293 292 292 292 291 291 291 291 291 291 291 291 291 290 290 289 289 288 288 287 287 286 285 285 285 284 284 283 283 283 283 283 283 282 282 282 282 282 282 281 281 281 281 280 280 280 280 279 279 278 278 278 277
306 306 305 305 305 305 305 304 304 304 304 303 303 303 302 302 302 301 301 300 300 299 299 298 298 297 296 296 295 295 295 294 294 294 293 293 293 293 293 293 293 293 292 292 292 291 291 291 290 290 289 289 288 287 287 286 286 285 285 284 284 284 284 284 284 283 283 283 283 283 282 282 282 282 281 281 281 280 280 279 279 278 278 277 277 277
306 306 305 305 305 305 305 305 304 304 304 304 303 303 303 302 302 302 301 301 300 300 299 298 298 297 297 296 296 295 295 295 295 295 295 294 294 294 294 294 294 293 293 293 292 292 292 291 291 290 290 289 289 288 288 287 287 286 285 285 285 285 285 285 284 284 284 284 283 283 283 283 282 282 282 281 280 280 279 278 278 277 277 277 276 276
306 306 306 305 305 305 305 305 305 305 304 304 304 304 303 303 302 302 302 301 300 300 299 299 298 298 297 297 296 296 296 296 296 296 296 296 296 295 295 295 295 294 294 293 293 293 292 292 291 291 290 290 289 289 288 288 288 287 287 286 286 286 286 285 285 285 284 284 284 284 283 283 283 282 282 281 280 279 278 278 277 277 276 276 275 275
306 306 306 306 306 306 305 305 305 305 305 304 304 304 303 303 303 302 302 301 301 300 300 299 299 298 298 298 298 298 297 297 297 297 297 297 297 297 296 296 295 295 295 294 294 293 293 292 292 291 291 291 290 290 289 289 288 288 288 288 288 287 287 286 286 285 285 285 284 284 284 283 283 282 281 280 279 278 278 277 276 276 275 275 275 274
306 306 306 306 306 306 306 306 305 305 305 305 304 304 304 303 303 302 301 301 301 300 300 299 299 299 299 299 299 299 299 299 299 299 298 298 298 298 297 297 296 296 295 295 294 294 293 293 292 292 291 291 291 290 290 290 290 290 290 289 289 289 288 287 287 286 286 285 285 284 284 283 282 281 281 280 279 278 277 276 276 275 275 274 274 273
306 306 306 306 306 306 306 306 305 305 305 305 304 304 303 303 303 302 302 301 301 301 300 300 300 300 300 300 300 300 300 300 300 300 300 299 299 298 298 297 297 296 296 295 295 294 294 293 293 292 292 291 291 291 291 291 291 291 291 291 290 290 289 289 288 287 286 286 285 284 284 283 282 281 279 279 278 277 276 275 275 274 274 273 273 272
306 306 306 306 306 306 306 306 305 305 305 305 304 304 303 303 303 302 302 302 301 301 301 301 301 301 301 301 301 301 301 301 301 301 300 300 300 299 298 298 297 297 296 296 295 295 294 294 293 293 292 292 292 291 291 291 291 292 291 291 291 291 290 290 289 288 287 287 286 285 284 283 281 280 279 277 276 276 275 274 274 273 273 272 272 271
307 307 306 306 306 306 306 306 305 305 305 305 304 304 303 303 303 302 302 302 302 301 301 301 301 301 301 302 302 302 302 302 301 301 301 300 300 299 299 298 298 297 297 296 296 295 295 294 293 293 292 292 292 292 292 292 292 292 292 292 292 291 291 290 290 289 289 288 287 286 284 283 281 280 278 277 276 275 274 273 273 272 272 271 271 270
307 307 307 306 306 306 306 306 305 305 305 305 304 304 303 303 303 303 302 302 302 302 302 302 302 302 302 303 303 303 303 302 302 302 301 301 300 300 299 299 298 298 297 297 296 296 295 294 294 293 293 292 292 292 292 292 292 292 292 292 291 291 291 291 290 290 290 289 288 286 285 283 281 279 278 277 275 274 274 273 272 271 271 270 270 270
307 307 307 307 306 306 306 306 306 305 305 304 304 304 303 303 303 303 303 303 303 303 303 303 304 304 304 303 303 303 303 303 302 302 301 301 300 300 300 299 299 298 298 297 297 296 295 295 294 294 293 293 293 293 292 292 292 292 292 292 291 291 291 291 291 290 290 289 288 287 285 283 281 280 278 277 275 274 273 272 271 271 270 270 270 270
307 307 307 307 307 306 306 306 306 305 305 304 304 304 304 304 304 304 303 304 304 304 304 305 305 305 304 304 304 304 303 303 303 302 302 301 301 300 300 300 299 299 298 298 297 296 295 295 294 294 294 293 293 293 293 292 292 292 292 291 291 291 291 291 290 290 290 289 288 287 285 283 282 280 278 277 276 275 274 273 272 271 271 270 270 269
308 308 307 307 307 307 306 306 306 305 305 305 304 304 304 304 304 304 304 305 305 305 306 306 306 305 305 305 305 304 304 304 303 303 302 302 301 301 300 300 300 299 299 298 297 296 296 295 295 294 294 294 294 293 293 292 292 292 291 291 291 291 291 290 290 290 289 288 287 286 285 283 281 280 279 278 277 276 275 274 273 273 272 272 271 270
308 308 308 308 307 307 307 306 306 306 305 305 305 305 305 305 305 305 306 306 306 307 307 307 307 306 306 305 305 305 304 304 304 303 303 302 302 301 301 300 300 299 299 298 297 296 295 295 295 295 294 294 294 294 293 293 292 292 291 291 291 291 291 290 290 289 288 287 286 285 284 283 281 280 279 278 278 277 276 276 275 275 274 274 273 271
308 308 308 308 308 307 307 307 306 306 306 305 305 305 306 306 306 306 307 307 308 308 308 307 307 307 306 306 306 305 305 304 304 303 303 303 302 302 301 301 300 299 298 298 297 296 295 295 295 295 295 294 294 294 293 293 293 292 292 292 292 291 291 290 290 289 288 286 285 284 283 282 281 280 280 279 279 278 278 278 278 277 276 275 274 273
309 308 308 308 308 308 307 307 307 306 306 306 306 306 306 307 307 307 308 308 309 308 308 308 308 307 307 306 306 305 305 305 304 304 303 303 303 302 302 301 300 299 298 298 297 296 295 295 295 295 295 294 294 294 293 293 293 293 293 292 292 292 291 290 289 288 287 285 284 283 282 281 281 280 280 280 280 280 280 281 280 279 278 276 275 273
309 309 309 309 308 308 307 307 307 307 307 307 307 307 307 307 308 309 309 309 309 309 309 308 308 307 307 307 306 306 305 305 304 304 304 304 303 303 302 301 300 300 299 298 297 296 295 295 295 295 295 294 294 294 293 293 293 293 293 293 292 292 291 290 289 288 286 285 284 283 282 281 281 281 281 281 282 282 283 282 281 280 278 277 275 273
Height
10406 10401 10397 10393 10389 10385 10381 10379 10377 10375 10374 10374 10375 10376 10378 10380 10382 10385 10389 10392 10395 10398 10400 10402 10403 10405 10406 10410 10414 10416 10418 10420 10421 10423 10425 10426 10428 10430 10431 10431 10432 10432 10432 10432 10432 10432 10433 10433 10435 10436 10436 10438 10438 10439 10440 10440 10441 10441 10441 10441 10440 10440 10438 10437 10436 10435 10435 10435 10436 10436 10436 10437 10438 10438 10438 10439 10439 10440 10440 10440 10440 10440 10441 10441 10441 10441
10404 10399 10395 10390 10386 10382 10378 10376 10374 10372 10371 10371 10372 10373 10375 10377 10380 10383 10386 10389 10391 10393 10395 10395 10396 10397 10400 10405 10409 10411 10413 10415 10416 10418 10419 10421 10422 10423 10425 10425 10425 10426 10426 10426 10426 10427 10428 10428 10429 10430 10431 10431 10432 10433 10433 10433 10434 10435 10435 10435 10435 10435 10435 10435 10433 10432 10431 10430 10429 10429 10429 10429 10429 10429 10430 10430 10430 10430 10431 10431 10431 10431 10431 10431 10431 10431
10402 10397 10392 10388 10383 10380 10376 10373 10371 10370 10370 10370 10370 10371 10373 10375 10377 10380 10382 10384 10386 10388 10388 10389 10390 10392 10395 10400 10404 10406 10408 10410 10411 10412 10413 10415 10416 10417 10418 10418 10419 10419 10420 10420 10421 10421 10422 10423 10423 10424 10425 10425 10426 10426 10426 10427 10427 10428 10428 10428 10428 10429 10429 10430 10429 10429 10428 10428 10426 10425 10425 10423 10423 10423 10422 10422 10422 10422 10423 10423 10423 10423 10423 10423 10423 10423
10401 10396 10391 10386 10382 10378 10375 10372 10370 10368 10368 10368 10369 10370 10371 10373 10375 10376 10378 10380 10381 10382 10383 10385 10386 10389 10391 10395 10398 10401 10403 10405 10406 10407 10408 10410 10410 10411 10411 10412 10412 10413 10413 10414 10415 10416 10416 10417 10417 10418 10418 10419 10419 10420 10420 10421 10421 10421 10421 10421 10421 10421 10421 10422 10423 10423 10423 10423 10423 10422 10421 10420 10420 10419 10418 10418 10417 10417 10416 10416 10416 10416 10416 10416 10417 10417
10400 10395 10390 10386 10381 10377 10374 10371 10369 10368 10367 10367 10368 10369 10370 10371 10373 10375 10375 10376 10378 10379 10380 10382 10384 10386 10389 10391 10394 10396 10398 10400 10401 10403 10404 10405 10405 10406 10406 10406 10406 10407 10408 10408 10409 10410 10410 10411 10411 10411 10412 10412 10413 10413 10414 10414 10415 10415 10415 10414 10414 10414 10414 10414 10415 10415 10416 10416 10416 10415 10415 10415 10415 10415 10414 10413 10413 10413 10412 10412 10411 10411 10411 10411 10411 10411
10400 10395 10390 10386 10381 10378 10374 10371 10369 10368 10367 10367 10368 10369 10370 10371 10373 10374 10375 10376 10377 10378 10380 10381 10383 10385 10387 10389 10391 10393 10395 10396 10398 10399 10400 10400 10400 10400 10400 10400 10401 10401 10402 10403 10403 10404 10405 10405 10405 10406 10406 10406 10406 10407 10407 10408 10408 10408 10408 10408 10408 10408 10408 10407 10407 10408 10408 10408 10408 10408 10408 10408 10408 10408 10407 10407 10406 10406 10406 10406 10406 10406 10406 10406 10406 10406
10400 10395 10391 10386 10382 10378 10375 10372 10370 10368 10368 10368 10368 10370 10370 10371 10373 10375 10376 10377 10378 10380 10381 10382 10384 10385 10386 10388 10389 10390 10391 10393 10394 10395 10396 10396 10396 10395 10396 10396 10396 10397 10397 10398 10398 10399 10399 10400 10400 10400 10400 10401 10401 10401 10401 10401 10401 10401 10401 10401 10401 10401 10401 10401 10400 10400 10400 10400 10400 10400 10400 10400 10400 10400 10400 10399 10399 10399 10398 10398 10398 10398 10398 10398 10398 10398
10400 10395 10391 10387 10383 10380 10376 10373 10371 10370 10369 10369 10370 10370 10371 10373 10374 10375 10377 10378 10380 10381 10382 10383 10384 10385 10386 10386 10387 10388 10388 10390 10390 10391 10391 10391 10391 10391 10391 10392 10393 10393 10393 10393 10393 10394 10394 10395 10395 10395 10395 10395 10395 10394 10394 10394 10394 10394 10395 10395 10395 10395 10394 10394 10393 10393 10393 10393 10392 10392 10392 10391 10391 10391 10391 10391 10391 10390 10390 10390 10390 10390 10390 10390 10390 10390
10400 10396 10392 10388 10385 10381 10378 10375 10373 10372 10371 10371 10371 10371 10373 10373 10375 10376 10377 10378 10380 10380 10381 10382 10383 10383 10384 10385 10385 10385 10386 10386 10386 10386 10387 10387 10387 10388 10388 10388 10388 10388 10388 10388 10388 10388 10389 10389 10389 10389 10388 10388 10388 10388 10388 10388 10387 10387 10388 10388 10387 10387 10387 10386 10386 10386 10386 10386 10385 10385 10385 10384 10384 10383 10383 10383 10382 10382 10382 10381 10381 10381 10381 10381 10381 10381
10400 10396 10393 10390 10386 10383 10381 10378 10376 10374 10373 10372 10372 10372 10373 10373 10374 10375 10376 10377 10378 10379 10380 10380 10380 10381 10381 10381 10382 10382 10382 10382 10383 10383 10383 10383 10383 10383 10383 10383 10383 10383 10383 10383 10383 10383 10383 10383 10383 10383 10383 10382 10382 10381 10381 10381 10381 10381 10381 10381 10380 10380 10380 10380 10379 10379 10378 10378 10378 10378 10377 10376 10376 10376 10375 10375 10374 10374 10373 10373 10373 10373 10373 10373 10372 10372
10399 10396 10393 10390 10388 10385 10383 10380 10378 10376 10375 10374 10373 10373 10373 10373 10374 10374 10374 10375 10375 10376 10376 10377 10377 10377 10378 10378 10378 10378 10378 10378 10378 10378 10378 10378 10378 10378 10378 10378 10378 10377 10378 10378 10378 10378 10378 10378 10378 10377 10376 10376 10376 10376 10375 10375 10375 10375 10375 10374 10374 10373 10373 10372 10372 10371 10371 10370 10370 10370 10369 10368 10368 10368 10367 10366 10366 10366 10365 10365 10365 10364 10364 10363 10363 10363
10399 10396 10393 10391 10388 10386 10384 10382 10380 10379 10377 10376 10375 10375 10374 10374 10373 10373 10373 10373 10373 10373 10373 10373 10373 10373 10373 10373 10373 10374 10374 10374 10374 10373 10374 10373 10373 10373 10373 10373 10373 10373 10373 10373 10373 10373 10373 10372 10372 10371 10370 10370 10370 10370 10370 10369 10369 10368 10368 10367 10366 10366 10365 10365 10364 10363 10363 10362 10361 10361 10361 10360 10360 10359 10359 10358 10358 10357 10357 10356 10356 10355 10355 10355 10354 10353
10400 10396 10393 10391 10388 10386 10385 10383 10381 10380 10379 10378 10376 10376 10375 10375 10374 10373 10373 10372 10371 10371 10371 10371 10370 10371 10371 10371 10371 10371 10371 10370 10370 10370 10370 10370 10370 10370 10369 10369 10368 10368 10368 10368 10368 10368 10367 10367 10366 10365 10365 10364 10363 10363 10363 10362 10362 10361 10360 10360 10359 10358 10358 10357 10356 10356 10355 10355 10354 10353 10353 10352 10351 10351 10350 10350 10350 10349 10348 10348 10347 10346 10346 10345 10345 10344
10400 10397 10394 10391 10389 10386 10385 10383 10381 10380 10379 10378 10377 10376 10376 10375 10374 10373 10373 10372 10371 10371 10371 10370 10370 10370 10370 10370 10369 10369 10368 10368 10367 10367 10366 10366 10366 10366 10366 10365 10365 10365 10364 10363 10363 10362 10362 10361 10361 10360 10359 10358 10358 10357 10356 10356 10355 10355 10354 10353 10352 10351 10351 10350 10350 10349 10348 10348 10346 10346 10345 10345 10343 10343 10342 10341 10341 10340 10340 10339 10338 10338 10337 10336 10336 10335
10400 10397 10395 10392 10390 10387 10385 10383 10381 10380 10379 10378 10377 10376 10375 10375 10374 10373 10373 10371 10371 10371 10370 10370 10369 10369 10368 10368 10368 10368 10367 10366 10365 10364 10363 10363 10363 10363 10363 10362 10361 10360 10360 10359 10358 10357 10357 10356 10355 10354 10353 10353 10353 10351 10351 10350 10349 10348 10348 10346 10346 10345 10345 10344 10343 10342 10341 10340 10340 10338 10338 10336 10336 10335 10335 10334 10333 10332 10331 10331 10330 10330 10329 10328 10327 10326
10399 10396 10395 10392 10390 10388 10386 10383 10381 10380 10378 10377 10376 10375 10374 10373 10373 10372 10371 10371 10370 10370 10369 10368 10368 10367 10367 10367 10367 10366 10365 10363 10362 10361 10360 10359 10359 10360 10360 10359 10357 10356 10355 10354 10353 10353 10352 10351 10350 10349 10348 10348 10347 10346 10345 10344 10343 10342 10341 10340 10340 10339 10338 10337 10336 10335 10334 10333 10332 10331 10330 10329 10328 10327 10326 10326 10325 10325 10324 10323 10322 10321 10320 10320 10319 10318
10398 10396 10393 10391 10390 10387 10385 10384 10381 10380 10378 10376 10375 10374 10373 10371 10371 10370 10370 10369 10368 10367 10366 10366 10365 10365 10364 10363 10364 10363 10363 10361 10359 10357 10356 10355 10355 10356 10356 10355 10353 10351 10350 10350 10349 10348 10347 10346 10345 10344 10343 10342 10341 10340 10339 10338 10336 10336 10335 10334 10333 10332 10331 10330 10329 10328 10327 10326 10325 10323 10323 10321 10321 10320 10319 10318 10318 10316 10316 10315 10314 10313 10312 10311 10310 10310
10396 10394 10392 10390 10388 10386 10385 10383 10381 10380 10378 10376 10375 10373 10371 10370 10369 10368 10367 10366 10365 10365 10363 10363 10362 10361 10360 10360 10360 10360 10359 10357 10355 10353 10351 10350 10350 10351 10351 10350 10348 10346 10345 10344 10343 10343 10341 10340 10339 10338 10337 10336 10335 10334 10333 10331 10330 10329 10328 10327 10326 10325 10324 10323 10322 10321 10320 10318 10317 10316 10315 10314 10313 10312 10311 10310 10310 10308 10308 10306 10306 10305 10304 10303 10302 10301
10393 10391 10390 10388 10386 10385 10383 10382 10380 10378 10377 10375 10373 10372 10370 10369 10368 10366 10365 10364 10363 10362 10361 10360 10358 10358 10357 10356 10355 10355 10355 10353 10351 10348 10346 10345 10345 10346 10346 10345 10343 10340 10339 10338 10338 10337 10336 10334 10333 10332 10331 10330 10328 10327 10326 10325 10323 10322 10321 10320 10319 10318 10316 10316 10315 10313 10312 10311 10310 10308 10307 10306 10305 10305 10303 10303 10301 10300 10300 10298 10297 10296 10295 10294 10293 10292
10390 10388 10387 10386 10384 10383 10381 10380 10378 10377 10375 10373 10372 10370 10368 10367 10366 10365 10363 10361 10360 10359 10358 10356 10355 10354 10353 10352 10351 10351 10350 10349 10346 10344 10342 10340 10340 10340 10341 10340 10337 10335 10333 10333 10332 10331 10330 10328 10327 10326 10325 10323 10322 10320 10319 10318 10316 10315 10314 10313 10312 10311 10310 10308 10306 10305 10304 10303 10301 10300 10300 10298 10298 10296 10295 10295 10293 10292 10291 10290 10288 10288 10286 10285 10284 10283
10386 10385 10383 10382 10381 10379 10378 10376 10375 10374 10373 10371 10369 10368 10366 10365 10363 10361 10360 10359 10358 10356 10355 10353 10351 10350 10350 10348 10347 10346 10346 10345 10342 10340 10338 10336 10335 10335 10336 10335 10332 10330 10328 10326 10326 10326 10324 10322 10321 10320 10318 10317 10315 10314 10312 10311 10310 10308 10307 10306 10305 10303 10302 10301 10299 10298 10296 10295 10294 10293 10291 10291 10290 10288 10287 10286 10285 10283 10283 10281 10280 10279 10278 10276 10275 10274
10383 10381 10380 10378 10377 10375 10374 10372 10371 10370 10368 10367 10365 10364 10362 10361 10360 10358 10356 10356 10354 10353 10351 10350 10348 10347 10346 10345 10343 10342 10341 10340 10338 10335 10333 10331 10330 10330 10330 10330 10326 10324 10321 10321 10320 10320 10318 10316 10315 10313 10312 10310 10308 10306 10305 10303 10302 10301 10300 10298 10297 10296 10295 10293 10291 10290 10288 10287 10286 10285 10284 10283 10281 10280 10279 10278 10276 10275 10274 10273 10271 10270 10268 10267 10266 10265
10380 10378 10376 10375 10373 10371 10370 10368 10367 10366 10364 10363 10361 10360 10358 10356 10355 10353 10352 10351 10350 10348 10346 10345 10343 10342 10341 10340 10339 10338 10336 10335 10333 10331 10328 10326 10324 10323 10325 10323 10321 10317 10315 10315 10314 10313 10311 10310 10308 10306 10305 10303 10301 10299 10298 10296 10295 10293 10292 10291 10290 10288 10286 10285 10283 10282 10281 10280 10278 10277 10276 10275 10273 10272 10270 10269 10268 10266 10265 10263 10262 10260 10259 10258 10256 10255
10376 10374 10372 10370 10369 10367 10365 10364 10363 10361 10360 10358 10356 10355 10353 10352 10351 10350 10348 10346 10345 10343 10341 10340 10338 10337 10336 10335 10334 10332 10331 10330 10328 10325 10323 10320 10318 10317 10317 10316 10314 10310 10308 10308 10307 10306 10304 10302 10300 10299 10297 10295 10293 10291 10290 10288 10287 10286 10284 10283 10281 10280 10278 10277 10275 10274 10272 10271 10270 10268 10267 10266 10265 10263 10261 10260 10258 10257 10256 10254 10252 10251 10249 10248 10246 10245
10371 10370 10368 10366 10364 10363 10361 10359 10358 10356 10355 10353 10351 10350 10348 10347 10346 10345 10343 10341 10340 10338 10336 10335 10333 10331 10330 10330 10328 10326 10325 10324 10323 10320 10316 10313 10311 10310 10310 10310 10307 10303 10300 10300 10300 10298 10296 10294 10293 10291 10290 10287 10285 10283 10282 10280 10279 10278 10276 10275 10273 10271 10270 10268 10267 10265 10264 10262 10261 10260 10258 10256 10255 10254 10252 10251 10249 10248 10246 10245 10243 10241 10240 10238 10236 10235
10367 10365 10363 10361 10359 10358 10356 10354 10353 10351 10349 10348 10346 10344 10343 10341 10340 10338 10337 10336 10335 10333 10331 10329 10326 10325 10324 10323 10321 10320 10319 10318 10316 10313 10310 10307 10305 10303 10302 10302 10300 10296 10293 10291 10291 10291 10288 10286 10284 10283 10281 10279 10277 10275 10274 10272 10271 10269 10268 10266 10265 10263 10261 10260 10258 10256 10255 10253 10251 10250 10249 10247 10246 10245 10243 10241 10240 10238 10236 10235 10233 10231 10230 10228 10226 10225
10362 10360 10358 10356 10354 10352 10351 10349 10347 10346 10344 10342 10341 10339 10337 10335 10333 10332 10331 10330 10328 10327 10325 10323 10320 10318 10317 10316 10315 10313 10312 10311 10309 10306 10304 10301 10297 10295 10294 10294 10292 10289 10286 10283 10283 10282 10281 10278 10276 10275 10273 10270 10268 10267 10265 10263 10262 10260 10259 10257 10256 10254 10252 10251 10249 10247 10246 10244 10243 10241 10240 10238 10236 10235 10234 10232 10230 10229 10227 10225 10223 10222 10220 10218 10216 10215
10357 10355 10353 10351 10350 10347 10346 10344 10342 10340 10339 10337 10336 10334 10332 10330 10328 10326 10324 10323 10322 10320 10318 10316 10314 10312 10310 10308 10307 10306 10305 10303 10301 10299 10296 10293 10290 10287 10286 10286 10284 10281 10279 10275 10274 10273 10273 10270 10268 10266 10264 10262 10260 10258 10256 10255 10253 10251 10250 10248 10247 10245 10243 10241 10240 10238 10236 10235 10233 10232 10230 10229 10228 10226 10225 10223 10221 10220 10218 10216 10215 10213 10211 10210 10208 10205
10353 10351 10348 10346 10345 10343 10341 10339 10337 10335 10334 10332 10330 10329 10327 10325 10323 10320 10318 10317 10316 10314 10311 10310 10308 10306 10304 10301 10300 10299 10298 10296 10295 10293 10290 10286 10281 10279 10278 10278 10276 10274 10272 10268 10265 10264 10263 10262 10261 10259 10256 10253 10252 10250 10248 10246 10245 10243 10241 10240 10238 10236 10234 10233 10231 10229 10227 10226 10224 10223 10221 10220 10218 10217 10215 10214 10212 10210 10209 10207 10206 10204 10203 10201 10199 10196
10348 10346 10344 10342 10340 10338 10336 10334 10332 10330 10329 10327 10325 10323 10321 10320 10318 10315 10313 10311 10310 10308 10305 10303 10301 10300 10298 10295 10293 10291 10290 10290 10288 10286 10283 10278 10273 10271 10271 10269 10267 10266 10265 10261 10258 10255 10253 10253 10253 10251 10248 10245 10243 10241 10240 10238 10236 10234 10232 10230 10228 10226 10225 10223 10221 10220 10218 10216 10215 10213 10212 10211 10210 10208 10206 10205 10203 10201 10200 10198 10197 10196 10194 10192 10190 10188
10344 10341 10340 10337 10335 10333 10331 10330 10328 10325 10324 10322 10320 10318 10316 10315 10313 10310 10308 10306 10304 10302 10300 10297 10295 10293 10291 10290 10287 10284 10282 10281 10281 10280 10276 10271 10266 10263 10263 10261 10258 10256 10256 10255 10251 10246 10243 10241 10242 10243 10241 10238 10235 10232 10230 10229 10226 10225 10223 10221 10219 10217 10215 10214 10212 10210 10208 10206 10205 10204 10203 10201 10200 10199 10198 10196 10195 10193 10191 10190 10188 10187 10186 10184 10181 10180
10339 10337 10335 10333 10331 10329 10326 10325 10323 10320 10318 10316 10315 10313 10311 10309 10306 10305 10303 10300 10298 10296 10294 10291 10289 10287 10285 10283 10281 10278 10275 10273 10273 10271 10269 10264 10258 10255 10255 10253 10250 10247 10246 10246 10244 10240 10236 10231 10230 10231 10231 10229 10226 10223 10221 10220 10218 10215 10213 10211 10209 10207 10206 10205 10203 10201 10199 10198 10196 10195 10193 10193 10191 10190 10189 10187 10186 10185 10183 10181 10180 10179 10177 10175 10173 10171
10334 10332 10330 10328 10326 10324 10322 10320 10318 10315 10313 10311 10309 10307 10305 10303 10300 10298 10296 10294 10292 10290 10287 10285 10282 10280 10278 10276 10273 10271 10268 10266 10265 10263 10261 10256 10251 10248 10245 10244 10241 10238 10237 10236 10235 10232 10229 10225 10221 10220 10219 10218 10216 10213 10211 10210 10208 10206 10204 10201 10200 10197 10196 10195 10194 10192 10190 10188 10187 10186 10185 10184 10183 10181 10180 10179 10178 10176 10175 10173 10172 10170 10169 10167 10165 10163
10330 10327 10325 10323 10321 10319 10316 10315 10313 10310 10308 10306 10303 10301 10299 10296 10294 10292 10290 10288 10285 10283 10281 10278 10275 10273 10270 10267 10265 10262 10260 10259 10258 10256 10253 10249 10245 10240 10237 10235 10233 10231 10228 10226 10224 10222 10220 10216 10213 10210 10208 10206 10205 10204 10202 10200 10198 10196 10194 10192 10190 10188 10186 10186 10185 10183 10181 10180 10178 10177 10176 10175 10175 10173 10172 10171 10170 10168 10166 10165 10163 10162 10161 10159 10157 10155
10325 10323 10320 10318 10316 10313 10311 10309 10307 10305 10302 10300 10298 10295 10293 10290 10288 10285 10283 10280 10278 10276 10273 10271 10268 10266 10263 10260 10256 10253 10251 10250 10249 10247 10245 10241 10237 10233 10230 10227 10225 10223 10220 10217 10215 10212 10209 10206 10203 10201 10198 10195 10193 10192 10192 10190 10188 10186 10183 10182 10181 10179 10178 10177 10176 10175 10173 10171 10170 10169 10168 10167 10166 10165 10164 10163 10161 10160 10158 10157 10155 10154 10153 10151 10150 10148
10320 10318 10315 10313 10311 10308 10306 10303 10301 10298 10296 10293 10291 10289 10286 10283 10281 10278 10276 10273 10271 10268 10265 10263 10261 10258 10255 10253 10250 10246 10243 10241 10240 10238 10236 10233 10230 10226 10222 10219 10217 10215 10212 10208 10205 10203 10200 10196 10193 10191 10189 10186 10182 10180 10180 10180 10178 10176 10174 10173 10171 10170 10169 10168 10167 10166 10165 10163 10161 10161 10160 10159 10158 10157 10156 10155 10154 10152 10151 10149 10148 10146 10145 10143 10142 10141
10315 10312 10310 10308 10305 10303 10300 10297 10295 10292 10290 10287 10284 10281 10279 10276 10274 10271 10268 10266 10263 10260 10257 10255 10252 10250 10247 10245 10242 10239 10236 10233 10231 10229 10227 10225 10221 10218 10215 10211 10208 10207 10205 10201 10197 10194 10191 10188 10185 10181 10180 10176 10173 10171 10168 10168 10167 10166 10165 10164 10163 10162 10160 10160 10159 10158 10156 10155 10153 10153 10151 10151 10150 10149 10148 10147 10146 10145 10143 10141 10140 10139 10138 10136 10135 10134
10309 10306 10304 10301 10299 10296 10294 10291 10288 10286 10283 10280 10277 10275 10272 10269 10266 10264 10261 10258 10255 10252 10250 10246 10243 10241 10238 10236 10234 10231 10228 10226 10223 10221 10218 10216 10214 10211 10207 10203 10200 10198 10196 10193 10189 10185 10183 10179 10176 10173 10170 10167 10165 10162 10160 10158 10156 10155 10155 10155 10154 10153 10152 10151 10151 10150 10149 10147 10146 10145 10144 10143 10143 10141 10140 10140 10138 10136 10135 10134 10133 10131 10131 10130 10128 10128
10303 10301 10298 10296 10293 10290 10288 10285 10282 10279 10276 10273 10271 10268 10265 10262 10259 10256 10253 10251 10248 10245 10241 10238 10236 10233 10230 10228 10225 10223 10220 10218 10215 10213 10210 10208 10205 10203 10200 10195 10192 10189 10187 10185 10181 10178 10175 10171 10168 10165 10161 10158 10155 10153 10151 10148 10147 10146 10145 10145 10145 10145 10144 10144 10143 10142 10141 10140 10139 10138 10137 10136 10136 10135 10133 10132 10131 10129 10128 10126 10126 10125 10124 10123 10122 10121
10298 10295 10293 10290 10287 10285 10281 10278 10276 10273 10270 10267 10264 10261 10258 10255 10251 10249 10246 10243 10240 10237 10234 10231 10228 10225 10223 10220 10218 10215 10213 10210 10208 10205 10203 10200 10197 10195 10191 10188 10184 10181 10178 10175 10173 10170 10166 10163 10160 10156 10154 10151 10147 10144 10141 10139 10138 10137 10137 10136 10135 10135 10136 10135 10135 10135 10134 10133 10133 10131 10131 10130 10129 10128 10126 10125 10123 10122 10121 10120 10119 10118 10118 10117 10116 10115
10293 10290 10287 10284 10281 10278 10276 10273 10270 10266 10263 10260 10257 10254 10251 10248 10245 10241 10238 10235 10232 10230 10226 10223 10220 10217 10215 10213 10211 10208 10206 10203 10200 10197 10195 10192 10189 10186 10183 10180 10176 10173 10170 10167 10164 10161 10159 10155 10152 10149 10146 10143 10140 10136 10133 10131 10130 10129 10129 10128 10126 10126 10126 10126 10126 10126 10126 10126 10126 10125 10125 10124 10123 10121 10120 10118 10117 10115 10115 10113 10113 10112 10111 10111 10110 10109
10288 10285 10281 10278 10275 10273 10270 10266 10263 10260 10257 10254 10251 10247 10244 10241 10238 10234 10231 10228 10225 10221 10219 10216 10213 10210 10206 10204 10203 10201 10199 10196 10193 10190 10186 10184 10181 10178 10175 10172 10169 10166 10163 10159 10156 10153 10151 10148 10145 10141 10138 10136 10133 10130 10126 10125 10123 10122 10121 10120 10120 10118 10118 10117 10118 10118 10118 10119 10119 10119 10118 10117 10116 10115 10113 10111 10110 10110 10108 10108 10106 10106 10105 10105 10104 10103
10282 10279 10276 10273 10270 10266 10263 10260 10257 10254 10251 10247 10244 10240 10237 10234 10231 10228 10224 10221 10218 10215 10211 10209 10206 10203 10200 10197 10195 10193 10191 10188 10186 10183 10180 10176 10173 10170 10167 10164 10161 10158 10155 10152 10148 10145 10143 10140 10137 10135 10131 10129 10126 10123 10120 10118 10116 10116 10115 10114 10113 10111 10110 10109 10110 10111 10111 10111 10111 10112 10111 10111 10110 10108 10106 10105 10104 10103 10103 10102 10101 10100 10100 10099 10099 10098
10276 10273 10270 10267 10263 10260 10257 10254 10251 10247 10244 10241 10237 10233 10230 10227 10224 10221 10218 10214 10211 10208 10205 10202 10199 10196 10193 10191 10188 10185 10183 10181 10178 10176 10173 10170 10166 10163 10160 10156 10154 10151 10148 10145 10141 10138 10135 10132 10130 10128 10125 10123 10120 10117 10115 10113 10111 10110 10108 10108 10107 10105 10103 10103 10103 10103 10103 10104 10105 10105 10105 10104 10103 10101 10100 10099 10098 10098 10096 10096 10096 10095 10095 10094 10094 10093
10270 10267 10264 10261 10258 10254 10251 10248 10244 10241 10238 10234 10230 10227 10223 10220 10217 10214 10211 10208 10204 10201 10198 10196 10193 10189 10186 10183 10181 10178 10176 10173 10171 10169 10166 10163 10160 10156 10153 10150 10147 10144 10141 10138 10135 10131 10128 10125 10122 10120 10118 10116 10114 10111 10110 10108 10106 10104 10103 10101 10101 10100 10098 10098 10097 10096 10096 10096 10097 10097 10097 10096 10096 10095 10093 10093 10092 10091 10091 10090 10090 10090 10090 10090 10090 10089
10264 10261 10258 10255 10251 10248 10245 10241 10238 10235 10231 10228 10224 10221 10217 10214 10211 10208 10205 10201 10198 10195 10191 10189 10186 10183 10179 10176 10173 10171 10168 10165 10163 10161 10159 10156 10153 10150 10146 10143 10140 10137 10134 10130 10127 10124 10121 10118 10115 10113 10111 10110 10108 10106 10105 10103 10101 10098 10097 10096 10095 10094 10093 10093 10092 10091 10091 10090 10090 10090 10090 10090 10089 10088 10087 10086 10086 10085 10085 10085 10085 10085 10085 10085 10085 10085
10258 10255 10251 10248 10245 10241 10238 10235 10231 10228 10225 10221 10218 10215 10211 10208 10205 10201 10198 10195 10192 10189 10185 10182 10179 10176 10173 10169 10166 10163 10161 10158 10155 10153 10151 10149 10146 10143 10140 10137 10134 10131 10128 10124 10120 10117 10115 10111 10109 10107 10105 10103 10102 10100 10099 10097 10095 10093 10092 10091 10090 10089 10088 10087 10087 10086 10086 10085 10084 10083 10083 10083 10082 10081 10081 10080 10080 10079 10079 10079 10080 10080 10080 10080 10080 10080
10252 10249 10245 10242 10239 10235 10232 10228 10225 10222 10218 10215 10211 10208 10205 10202 10199 10195 10191 10188 10186 10183 10179 10175 10172 10169 10165 10162 10160 10156 10154 10151 10148 10146 10144 10141 10139 10136 10133 10131 10128 10125 10121 10118 10115 10111 10108 10105 10103 10101 10100 10098 10096 10095 10093 10091 10090 10088 10087 10086 10085 10084 10083 10082 10082 10081 10080 10080 10078 10078 10076 10076 10076 10075 10075 10075 10074 10073 10073 10073 10074 10075 10075 10075 10075 10075
10246 10243 10240 10236 10233 10229 10226 10222 10219 10216 10212 10209 10206 10202 10199 10196 10193 10190 10186 10183 10180 10176 10173 10169 10165 10161 10158 10155 10153 10150 10147 10144 10141 10139 10137 10135 10132 10130 10126 10124 10121 10118 10115 10112 10109 10106 10103 10100 10098 10096 10095 10093 10091 10089 10087 10086 10085 10083 10082 10081 10080 10080 10078 10077 10076 10076 10075 10074 10073 10071 10071 10070 10070 10070 10069 10069 10068 10068 10068 10068 10068 10069 10070 10070 10070 10070
10241 10237 10234 10230 10226 10223 10220 10216 10213 10210 10206 10203 10200 10196 10193 10190 10188 10185 10181 10178 10174 10170 10166 10163 10160 10155 10152 10148 10146 10143 10140 10137 10135 10132 10130 10128 10125 10122 10120 10117 10115 10111 10108 10106 10103 10100 10097 10095 10092 10091 10090 10088 10086 10084 10082 10081 10080 10078 10078 10076 10076 10075 10073 10072 10071 10070 10069 10068 10067 10066 10065 10065 10065 10065 10064 10063 10063 10063 10063 10063 10063 10063 10064 10065 10064 10063
10235 10231 10228 10225 10221 10217 10214 10210 10207 10203 10200 10197 10194 10191 10188 10185 10181 10179 10176 10172 10168 10165 10160 10157 10153 10150 10146 10143 10140 10136 10134 10131 10128 10125 10123 10121 10118 10116 10113 10110 10108 10105 10102 10100 10097 10095 10092 10089 10087 10085 10085 10083 10082 10080 10078 10076 10075 10074 10073 10072 10071 10070 10068 10067 10066 10065 10063 10062 10061 10060 10060 10060 10060 10060 10060 10059 10059 10059 10058 10058 10058 10058 10058 10058 10058 10057